Regional Weather Roundup
Issued by NWS

Home | Current Version | Previous Version | Graphics & Text | Print | Product List | Glossary On
Versions: 1 2 3 4 5 6 7 8 9 10 11 12 13 14 15 16 17 18 19 20 21 22 23 24 25 26 27 28 29 30 31 32 33 34 35 36 37 38 39 40 41 42 43 44 45 46 47 48 49 50
796
ASUS44 KLIX 220105
RWRLA
LOUISIANA WEATHER ROUNDUP
NATIONAL WEATHER SERVICE NEW ORLEANS LA
800 PM CDT MON JUL 21 2014

NOTE: "FAIR" INDICATES FEW OR NO CLOUDS BELOW 12,000 FEET WITH NO
      SIGNIFICANT WEATHER AND/OR OBSTRUCTIONS TO VISIBILITY.
      SKY/WX - SKY CONDITION AND SIGNIFICANT WEATHER.
      TMP - AIR TEMPERATURE.    DP   - DEWPOINT TEMPERATURE.
      RH  - RELATIVE HUMIDITY.  PRES - PRESSURE.
      HX  - HEAT INDEX.         WCI  - WIND CHILL INDEX.

*  THESE STATIONS ARE NOT NWS OR FAA STATIONS AND ARE NOT UNDER
   NWS QUALITY CONTROL.

LAZ040-048-061>063-065-066-069-220200-
SOUTHEAST LOUISIANA

CITY           SKY/WX    TMP DP  RH WIND       PRES   REMARKS
N.O. AUDUBON     N/A     87  73  62 MISG        N/A
N.O. INTL ARPT PTCLDY    85  70  60 NW5       29.98S
N.O. LAKEFRONT CLEAR     86  70  58 CALM      29.99S
N.O. DOWNTOWN* FAIR      88  66  48 N5        29.99S
SLIDELL        CLEAR     82  75  79 CALM      29.98R
BATON ROUGE    CLEAR     82  73  74 CALM      29.99R
BOOTHVILLE     PTCLDY    83  75  77 CALM      30.00R
BELLE CHASSE   PTCLDY    81  73  76 NE3       29.98R
BOGALUSA*      FAIR      82  76  80 CALM      30.00S
GALLIANO*      NOT AVBL
NEW ROADS*     FAIR      80  74  80 N6        29.99S
GONZALES*      FAIR      82  77  86 CALM      29.98S
HAMMOND*       CLEAR     82  72  69 CALM      30.01R
HOUMA*         MOCLDY    84  74  70 E3        29.99R
PORT FOURCHON* MOCLDY    84  77  79 SE5       30.00S

$$

LAZ041-044-053-054-220200-
SOUTHWEST LOUISIANA

CITY           SKY/WX    TMP DP  RH WIND       PRES   REMARKS
LAKE CHARLES   PTCLDY    86  78  77 CALM      29.97R HX  98
LAFAYETTE      CLEAR     84  76  76 NE3       29.98R
PATTERSON      NOT AVBL
SALT POINT       N/A     86  79  79 CALM      29.98R HX  99
NEW IBERIA     CLEAR     86  74  67 NE5       29.99R
CHENAULT AIRPK NOT AVBL

$$

LAZ027-028-220200-
CENTRAL LOUISIANA

CITY           SKY/WX    TMP DP  RH WIND       PRES   REMARKS
FORT POLK      CLEAR     84  73  69 NE3       29.99R
ALEXANDRIA INT CLEAR     82  71  69 NE3       29.98R
ALEXANDRIA     CLEAR     80  72  76 CALM      30.00R

$$

LAZ001-002-220200-
NORTHWEST LOUISIANA

CITY           SKY/WX    TMP DP  RH WIND       PRES   REMARKS
SHREVEPORT     PTCLDY    83  69  62 NE6       29.99F
BARKSDALE AFB  CLEAR     81  70  68 NE2       30.00F
DTN SHREVEPORT CLEAR     82  68  62 CALM      30.00S

$$

LAZ014-016-220200-
NORTHEAST LOUISIANA

CITY           SKY/WX    TMP DP  RH WIND       PRES   REMARKS
MONROE         CLEAR     80  71  74 CALM      30.02R
TALLULAH       CLEAR     80  72  76 N3        30.01S

$$




USA.gov is the U.S. government's official web portal to all federal, state and local government web resources and services.